Вернуться в каталог

COSMOS 394

АктивенВоенныеVLEO
NORAD 4922·PAYLOAD·🇷🇺 Russia

Запущен Feb 9, 1971 с Plesetsk Cosmodrome

Loading…

Ближайшие Пролёты (ближайшие 24 часа)

TLE

СвежийSource: Space-Track

Эпоха: Sep 14, 2026, 11:56 UTC

1 04922U 71010A   26257.49760559  .00004291  00000-0  82317-4 0  9994
2 04922  65.8209 342.5066 0006446 231.2443 128.8132 15.49398594 71857

Отслеживайте COSMOS 394 в реальном времени с AllMySat

Download on the App Store